FW2813 Weather Reports


time (UTC)temp
C
wind
direction
speed
KPH
gust
KPH
rain 1hr
cm
rain 24hr
cm
rain mn
cm
humidity
%
barometer
mb
20260505031517 6 205 0.0 8.0 0.00 0.71 0.00 88 1006.5
20260505030017 6 145 0.0 3.2 0.00 0.79 0.71 87 1006.3
20260505024512 6 144 0.0 6.4 0.00 0.79 0.71 86 1006.1
20260505023012 6 158 0.0 4.8 0.00 0.79 0.71 83 1006.0
20260505021511 7 172 1.6 4.8 0.00 0.79 0.71 80 1005.9
20260505020007 7 197 1.6 9.7 0.00 0.79 0.71 79 1005.6
20260505014510 8 175 0.0 4.8 0.00 0.79 0.71 78 1005.5
20260505013006 8 168 0.0 9.7 0.00 0.79 0.71 75 1005.5
20260505011504 10 168 1.6 8.0 0.00 0.79 0.71 71 1005.4
20260505010003 11 191 3.2 17.7 0.00 0.86 0.71 69 1005.2
20260505004507 11 206 3.2 20.9 0.00 0.86 0.71 69 1005.2
20260505003104 11 239 6.4 16.1 0.00 0.86 0.71 68 1005.0
20260505001558 11 276 8.0 19.3 0.00 0.86 0.71 66 1004.8
20260504234617 11 261 9.7 29.0 0.00 0.99 0.71 60 1004.5
20260504233054 11 270 8.0 14.5 0.00 0.99 0.71 60 1004.3
20260504231556 11 218 3.2 8.0 0.00 0.99 0.71 53 1004.0
20260504230050 11 219 3.2 9.7 0.00 1.37 0.71 53 1003.8
20260504224553 11 267 3.2 11.3 0.00 1.37 0.71 57 1003.4
20260504223047 12 274 8.0 22.5 0.00 1.37 0.71 57 1003.2
20260504221554 12 300 16.1 38.6 0.00 1.37 0.71 57 1003.1
20260504220047 12 270 14.5 38.6 0.00 1.93 0.71 55 1003.0
20260504214550 12 256 25.7 40.2 0.00 1.93 0.71 50 1002.8
20260504213050 12 302 16.1 30.6 0.00 1.93 0.71 51 1002.7
20260504211540 13 280 17.7 32.2 0.00 1.93 0.71 53 1002.6
20260504210037 13 281 20.9 33.8 0.00 2.08 0.71 49 1002.4
20260504204612 13 264 17.7 49.9 0.00 2.08 0.71 56 1002.3
20260504203034 13 311 16.1 29.0 0.00 2.08 0.71 51 1002.1
20260504201531 13 270 20.9 53.1 0.00 2.08 0.71 53 1001.7
20260504200034 13 253 22.5 38.6 0.00 2.26 0.71 55 1001.7
20260504194528 13 259 22.5 38.6 0.00 2.26 0.71 60 1001.5
20260504193025 13 188 19.3 40.2 0.00 2.26 0.71 59 1001.3
20260504191522 13 275 19.3 37.0 0.00 2.26 0.71 64 1001.0
20260504190018 13 203 22.5 40.2 0.00 2.31 0.71 63 1000.8
20260504184517 13 234 17.7 41.8 0.00 2.31 0.71 66 1000.5
20260504183015 13 301 27.4 46.7 0.00 2.31 0.71 70 1000.4
20260504181512 12 227 20.9 37.0 0.00 2.31 0.71 72 1000.4
20260504180008 11 282 12.9 33.8 0.00 2.31 0.71 76 1000.2
20260504174506 11 268 17.7 38.6 0.00 2.31 0.71 75 1000.2
20260504173006 11 284 20.9 35.4 0.00 2.31 0.71 78 1000.2
20260504171503 11 293 17.7 38.6 0.00 2.31 0.71 79 1000.0
20260504081529 2 262 29.0 43.5 0.08 2.03 0.41 95 983.3
20260504044541 3 252 8.0 22.5 0.05 1.70 0.08 95 976.2
20260504043033 3 288 11.3 25.7 0.05 1.68 0.05 95 975.4
20260504041531 3 255 8.0 17.7 0.05 1.68 0.05 95 974.7
20260504040026 4 278 9.7 14.5 0.05 1.68 0.05 95 974.0
20260504034525 3 115 0.0 3.2 0.05 1.65 0.05 95 973.5
20260504033024 3 115 0.0 9.7 0.05 1.65 0.03 95 973.3